Regional Weather Roundup
Issued by NWS Goodland, KS

Home | Current Version | Previous Version | Graphics & Text | Print | Product List | Glossary On
Versions: 1 2 3 4 5 6 7 8 9 10 11 12 13 14 15 16 17 18 19 20 21 22 23 24 25 26 27 28 29 30 31 32 33 34 35 36 37 38 39 40 41 42 43 44 45 46 47 48 49 50
000
ASUS43 KGLD 222359
RWRGLD

GOODLAND FORECAST AREA HOURLY WEATHER ROUNDUP
NATIONAL WEATHER SERVICE GOODLAND KS
500 PM MST SAT NOV 22 2014

...OFFICIAL OBSERVATIONS...

CITY           SKY/WX    TMP DP  RH WIND       PRES   REMARKS
GOODLAND KS    PTCLDY    53  17  24 S10       29.55F
HILL CITY KS   CLEAR     56  29  35 S9        29.56F
IMPERIAL NEB   MOCLDY    49  13  23 N5        29.52S HAZE
MCCOOK NEB     PTCLDY    55  22  27 S10       29.51S
AKRON CO       CLOUDY    50  13  22 CALM      29.55S
BURLINGTON CO  PTCLDY    50  17  27 S12       29.56F
LIMON CO       CLOUDY    40  14  34 E3        29.57F
$$

...UNOFFICIAL OBSERVATIONS...

CITY           SKY/WX    TMP DP  RH WIND       PRES   REMARKS
COLBY KS       CLEAR     55  23  28 S7        29.56S
GOVE KS          N/A     55  32  41 MISG        N/A
NORTON KS      CLEAR     55  23  28 SE10      29.53S
SHARON SPRINGS   N/A     48  23  37 S10         N/A
TRIBUNE KS     CLEAR     50  34  53 SE8       29.58F
TRENTON NEB      N/A     54  32  43 S7          N/A
YUMA CO          N/A     52  10  18 NE6         N/A
$$



USA.gov is the U.S. government's official web portal to all federal, state and local government web resources and services.